Wetbulb
37.62 38.03 38.56 38.97 39.02 38.84 38.70 39.02 39.32 39.33 39.16 39.00 39.06 39.32 39.63 39.68 39.54 39.67 39.94 40.21 40.44 40.66 41.07 41.52 41.83 42.06 42.34 42.62 42.53 42.40 42.10 41.85 41.73 41.82 41.91 41.60 41.50 41.66 42.02 42.28 42.64 43.04 43.44 44.02 44.91 45.85 46.57 46.79 47.10 47.01 46.83 46.52 46.47 46.83 47.33 47.78 49.13 50.76 52.16 52.88 54.92 56.10 57.00 57.67 58.28 58.73 59.30 59.97 60.75
36.79 37.16 37.74 38.38 38.39 38.08 37.78 37.82 38.17 38.40 38.45 38.45 38.57 38.78 38.95 39.05 39.03 39.11 39.23 39.45 39.86 40.26 40.71 41.11 41.38 41.66 41.85 42.13 42.27 42.14 41.79 41.41 41.25 41.16 41.21 41.11 41.10 41.22 41.53 41.80 42.02 42.41 42.72 43.03 43.70 44.51 45.18 45.49 45.49 45.49 45.40 45.44 45.39 45.71 46.38 47.28 48.19 48.28 48.05 47.60 48.91 49.99 50.71 51.03 50.35 50.71 51.84 53.65 54.97
36.34 36.45 36.56 36.53 36.57 36.53 36.57 36.63 36.90 37.15 37.47 37.72 38.03 38.18 38.28 38.37 38.41 38.56 38.67 39.04 39.48 39.83 40.17 40.35 40.80 41.21 41.49 41.86 41.96 41.88 41.66 41.28 40.94 40.71 40.62 40.67 40.75 41.01 41.14 41.30 41.40 41.66 41.88 42.18 42.63 43.34 44.02 44.51 44.69 44.60 44.50 44.32 44.22 44.58 45.34 46.43 46.83 46.52 45.89 45.48 45.93 46.38 46.65 46.65 46.20 46.34 46.88 47.46 47.28
36.03 35.96 35.89 35.85 35.80 35.83 35.91 36.11 36.29 36.54 36.79 37.10 37.37 37.55 37.70 37.88 38.02 38.17 38.40 38.76 38.94 39.19 39.40 39.69 40.13 40.67 41.13 41.53 41.60 41.61 41.58 41.51 41.08 40.59 40.35 40.40 40.31 40.53 40.75 40.88 40.69 40.73 40.99 41.56 41.87 42.40 43.03 43.58 43.75 43.75 43.47 43.28 43.19 43.45 44.13 45.21 45.39 45.17 44.98 44.85 44.98 44.99 44.94 45.12 45.12 44.99 44.68 44.50 44.63
35.64 35.74 35.72 35.65 35.71 35.71 35.85 35.99 35.95 35.96 36.20 36.49 36.51 36.60 36.76 37.17 37.46 37.66 37.85 38.08 38.20 38.55 38.99 39.36 39.69 40.14 40.63 41.00 41.23 41.29 41.31 41.24 41.26 40.77 40.18 40.01 40.09 40.27 40.40 40.31 40.11 40.23 40.54 41.08 41.39 41.79 42.23 42.46 42.82 42.90 42.93 42.83 42.73 42.86 43.31 44.13 44.27 44.22 44.08 44.31 44.40 44.35 44.26 44.26 44.36 44.23 43.88 43.61 43.96
35.23 35.43 35.64 35.74 35.77 35.75 35.81 35.87 35.91 35.92 36.05 36.15 35.81 35.72 35.81 36.20 36.47 36.65 36.82 37.03 37.54 38.12 38.70 39.26 39.41 39.67 39.98 40.21 40.56 40.84 40.98 40.99 40.95 40.61 40.16 39.90 40.03 40.21 40.25 39.97 40.38 40.51 40.55 40.69 41.00 41.35 41.65 41.79 41.97 42.23 42.43 42.65 42.42 42.47 42.78 43.37 43.51 43.32 43.10 43.10 43.41 43.59 43.50 43.36 43.42 43.20 42.94 42.58 42.84
35.22 35.31 35.48 35.62 35.64 35.63 35.62 35.66 35.84 35.90 35.83 35.70 35.27 35.08 35.10 35.34 35.63 35.79 36.15 36.53 37.00 37.56 38.16 38.64 38.58 38.74 38.95 39.26 39.70 40.11 40.48 40.71 40.72 40.56 40.34 39.99 39.99 40.11 40.23 40.28 40.33 40.29 40.25 40.29 40.51 40.81 41.07 41.38 41.33 41.55 41.90 42.25 42.11 42.07 42.25 42.57 42.57 42.43 42.12 42.02 42.56 42.83 42.78 42.56 42.57 42.31 41.95 41.60 41.82
35.23 35.35 35.46 35.54 35.63 35.57 35.47 35.51 35.43 35.34 35.19 35.14 35.03 34.90 34.92 34.97 35.04 35.26 35.56 35.97 36.37 36.86 37.40 37.70 37.74 37.95 38.16 38.50 38.81 39.29 39.71 40.11 40.39 40.45 40.37 40.11 39.93 39.92 40.00 40.09 40.14 40.06 40.06 40.02 40.11 40.29 40.59 40.84 40.92 40.95 41.08 41.39 41.48 41.52 41.67 41.91 41.86 41.68 41.54 41.48 41.90 42.17 42.21 42.03 41.81 41.51 41.21 41.16 41.24
34.75 35.02 35.30 35.44 35.45 35.41 35.37 35.26 35.17 34.95 34.75 34.74 34.78 34.89 34.97 35.01 34.77 34.72 34.83 35.16 35.85 36.37 36.76 36.96 37.22 37.43 37.65 37.85 38.19 38.54 39.07 39.51 39.92 40.11 40.30 40.26 39.99 39.77 39.76 39.90 39.90 39.82 39.92 40.06 39.98 40.02 40.10 40.27 40.29 40.50 40.67 40.89 40.85 41.03 41.26 41.46 41.28 41.19 41.22 41.43 41.63 41.69 41.70 41.47 41.04 40.83 40.70 40.73 40.80
34.01 34.45 34.78 34.87 35.07 35.22 35.33 35.11 35.12 34.92 34.68 34.53 34.58 34.84 35.17 35.65 34.97 34.53 34.58 35.12 35.66 35.75 35.81 36.20 36.54 36.83 36.94 37.23 37.52 37.91 38.43 38.93 39.42 39.78 40.06 40.24 39.98 39.71 39.44 39.48 39.53 39.58 39.68 39.83 39.88 39.84 39.66 39.60 39.58 39.79 40.09 40.40 40.40 40.54 40.73 40.96 40.78 40.73 40.86 41.16 41.44 41.45 41.33 41.07 40.49 40.19 40.09 40.33 40.45
33.58 33.99 34.30 34.42 34.72 35.10 35.18 34.65 34.75 34.79 34.66 34.48 34.68 34.86 35.01 35.28 34.89 34.76 34.90 35.20 34.99 34.88 35.05 35.79 36.07 36.17 36.31 36.60 37.03 37.42 37.95 38.39 38.97 39.38 39.69 39.84 39.85 39.58 39.36 39.23 39.23 39.27 39.36 39.67 39.82 39.65 39.42 39.15 39.00 39.04 39.26 39.74 39.87 40.05 40.18 40.29 40.20 40.11 40.14 40.40 40.77 40.91 40.82 40.83 40.32 39.80 39.58 39.80 40.09
33.26 33.59 33.96 34.21 34.42 34.57 34.56 34.24 34.21 34.29 34.32 34.40 34.61 34.72 34.75 34.78 34.99 35.11 35.05 34.72 34.38 34.50 34.90 35.56 35.74 35.79 35.84 36.07 36.46 36.90 37.42 37.73 38.31 38.84 39.25 39.44 39.58 39.46 39.20 38.95 38.85 38.84 39.00 39.31 39.58 39.58 39.31 38.86 38.60 38.38 38.46 38.81 39.23 39.41 39.46 39.56 39.43 39.29 39.25 39.34 39.61 39.87 40.09 40.45 40.29 39.81 39.33 39.18 39.42
33.12 33.29 33.50 33.72 33.94 33.97 33.87 33.69 33.70 33.70 33.83 33.94 34.27 34.45 34.61 34.86 35.43 35.43 35.03 34.38 34.29 34.52 34.89 35.41 35.57 35.57 35.61 35.72 35.92 36.25 36.68 37.11 37.64 38.17 38.71 39.16 39.31 39.20 38.99 38.59 38.46 38.33 38.44 38.69 39.09 39.21 39.03 38.69 38.34 38.02 37.83 37.96 38.26 38.52 38.71 38.76 38.62 38.43 38.30 38.22 38.35 38.52 38.83 39.46 40.05 39.85 39.25 38.43 38.53
32.83 32.99 33.08 33.23 33.33 33.39 33.25 33.17 33.17 33.16 33.22 33.28 33.62 33.99 34.34 34.64 35.35 35.40 35.01 34.42 34.38 34.43 34.67 34.90 35.25 35.48 35.61 35.74 35.71 35.90 36.10 36.47 36.99 37.43 38.00 38.72 39.04 38.97 38.67 38.32 38.03 37.90 37.84 38.03 38.39 38.64 38.64 38.50 38.16 37.81 37.45 37.27 37.48 37.71 37.93 38.05 37.86 37.72 37.53 37.31 37.26 37.35 37.75 38.25 39.24 39.56 39.10 37.88 37.64
31.90 32.32 32.62 32.81 32.82 32.83 32.72 32.65 32.69 32.60 32.63 32.58 32.92 33.32 33.68 33.94 34.70 34.97 34.84 34.39 34.32 34.18 34.10 34.12 34.33 34.86 35.50 35.88 35.66 35.57 35.67 35.81 36.18 36.64 37.20 38.05 38.56 38.66 38.50 38.10 37.76 37.46 37.27 37.35 37.52 37.86 38.08 38.25 38.04 37.74 37.30 36.98 36.98 37.06 37.19 37.32 37.22 37.07 36.89 36.66 36.56 36.65 36.87 37.27 38.07 38.75 38.85 37.85 36.83
30.44 31.04 31.58 31.99 32.07 32.08 32.09 32.11 32.23 32.26 32.22 32.13 32.41 32.66 32.94 33.10 33.71 34.14 34.29 34.01 33.81 33.68 33.54 33.48 33.56 33.95 34.47 35.22 35.22 35.25 35.15 35.10 35.46 35.86 36.41 37.19 37.93 38.26 38.15 37.89 37.54 37.20 36.85 36.76 36.87 37.12 37.47 37.82 37.95 37.79 37.40 36.92 36.73 36.64 36.64 36.68 36.59 36.50 36.32 36.25 36.11 36.14 36.27 36.58 36.97 37.67 38.13 37.93 36.52
29.54 29.86 30.34 30.76 30.99 31.20 31.36 31.52 31.81 31.88 32.02 32.12 32.15 32.30 32.45 32.66 33.07 33.47 33.79 33.72 33.37 33.13 33.04 33.06 33.31 33.43 33.62 33.97 34.41 34.50 34.49 34.50 34.67 35.05 35.65 36.49 37.35 37.82 37.88 37.76 37.63 37.34 37.03 36.60 36.36 36.43 36.64 37.03 37.51 37.66 37.50 37.02 36.71 36.48 36.31 36.27 36.17 36.08 35.95 35.86 35.76 35.75 35.82 36.12 36.19 36.70 37.24 37.48 36.43
29.02 29.26 29.50 29.71 29.96 30.25 30.64 31.04 31.30 31.52 31.78 32.11 32.10 32.11 32.17 32.38 32.58 32.92 33.25 33.58 33.22 32.88 32.64 32.65 32.98 33.12 33.11 33.22 33.64 33.91 34.07 33.88 33.98 34.35 34.97 35.83 36.79 37.46 37.84 37.90 37.82 37.61 37.26 36.77 36.24 36.01 36.04 36.21 36.73 37.12 37.22 37.01 36.58 36.32 36.19 35.97 35.83 35.79 35.67 35.53 35.44 35.39 35.34 35.50 35.57 35.85 36.36 36.71 36.29
28.32 28.59 28.79 28.86 29.08 29.41 29.91 30.50 30.63 30.85 31.11 31.40 31.75 31.85 31.99 32.12 32.27 32.50 32.71 32.88 33.06 32.85 32.54 32.37 32.51 32.66 32.77 32.87 33.06 33.55 33.87 33.78 33.88 34.10 34.57 35.33 36.15 36.93 37.63 37.87 37.83 37.71 37.44 36.87 36.34 35.94 35.71 35.65 35.95 36.25 36.47 36.43 36.10 35.93 35.72 35.63 35.49 35.41 35.41 35.32 35.24 35.15 35.10 35.05 35.13 35.32 35.61 36.07 36.07
27.56 27.72 27.94 28.25 28.57 28.84 29.17 29.54 29.76 30.08 30.37 30.70 30.86 31.04 31.26 31.45 31.69 31.81 32.06 32.36 32.87 32.96 32.78 32.35 32.03 32.14 32.31 32.53 32.67 32.96 33.32 33.60 33.74 33.96 34.41 34.94 35.46 36.24 37.11 37.87 37.69 37.57 37.39 36.89 36.29 35.86 35.52 35.28 35.32 35.53 35.74 35.79 35.50 35.16 34.95 34.86 34.85 34.82 34.82 34.91 34.96 34.90 34.86 34.82 34.82 34.85 35.05 35.46 35.71
26.83 27.07 27.30 27.64 28.00 28.32 28.66 28.96 29.20 29.41 29.56 29.72 29.70 29.84 30.09 30.46 30.64 30.79 31.04 31.53 31.99 32.19 32.24 32.06 31.77 31.66 31.74 31.94 32.03 32.25 32.63 33.22 33.30 33.58 34.01 34.46 34.96 35.72 36.81 37.86 37.69 37.48 37.28 36.81 36.12 35.75 35.41 35.04 34.83 34.84 34.92 35.15 34.86 34.64 34.38 34.20 33.95 33.97 34.01 34.12 34.25 34.40 34.53 34.46 34.42 34.45 34.43 34.75 35.17
26.33 26.55 26.79 26.92 27.28 27.81 28.24 28.41 28.48 28.51 28.48 28.45 28.45 28.53 28.72 29.01 29.32 29.58 29.88 30.21 30.62 30.84 30.98 31.13 31.13 31.14 31.12 31.10 31.13 31.34 31.86 32.56 32.66 32.97 33.31 33.61 34.18 35.22 36.47 37.76 37.63 37.26 36.96 36.82 36.50 36.08 35.57 35.04 34.57 34.25 34.05 33.81 34.23 34.23 33.94 33.64 33.30 33.10 33.04 33.06 33.29 33.61 33.86 33.88 33.88 33.90 33.97 34.12 34.54
26.01 26.11 26.29 26.39 26.55 27.14 27.63 27.44 27.37 27.42 27.43 27.36 27.28 27.24 27.30 27.42 27.83 28.15 28.40 28.60 28.91 28.94 28.95 29.29 29.80 29.92 29.88 29.69 29.68 29.88 30.34 30.83 31.05 31.48 31.93 32.44 33.05 34.13 35.53 37.05 37.14 36.80 36.46 36.52 36.44 36.05 35.40 34.54 33.90 33.51 33.22 32.76 33.29 33.47 33.25 32.91 32.71 32.42 32.19 32.09 32.33 32.68 32.99 33.16 33.22 33.30 33.46 33.53 33.91
25.45 25.67 25.98 26.07 25.51 25.49 25.68 25.92 26.05 26.19 26.27 26.17 26.12 26.14 26.22 26.35 26.71 26.84 26.99 27.01 26.96 26.82 26.87 27.39 28.03 28.42 28.40 28.03 28.21 28.40 28.58 28.75 28.79 29.16 29.75 30.55 31.20 32.29 33.84 35.96 36.55 36.29 35.94 36.15 36.61 36.42 35.67 34.46 33.14 32.42 31.96 31.89 31.97 31.95 31.83 31.66 31.47 31.34 31.17 31.04 31.29 31.59 31.97 32.22 32.48 32.60 32.73 32.73 33.10
24.53 24.92 25.18 24.95 24.66 24.67 24.85 24.94 25.07 25.15 25.28 25.38 25.43 25.53 25.59 25.74 26.03 26.17 26.24 26.21 26.17 26.02 25.95 25.88 26.39 27.31 27.64 26.61 26.63 26.99 27.26 27.42 27.38 27.40 27.64 28.20 29.13 30.36 32.09 34.57 36.08 36.19 35.86 36.20 37.56 37.92 37.43 36.34 34.37 32.57 31.21 30.67 30.62 30.73 30.70 30.66 30.40 30.30 30.17 30.05 29.96 29.97 30.05 30.19 30.80 31.36 31.72 31.69 31.99
23.38 23.59 23.67 23.57 23.67 23.81 23.99 24.10 24.32 24.52 24.81 25.05 25.06 25.00 25.00 25.15 25.58 25.63 25.58 25.61 25.58 25.54 25.47 25.29 25.85 27.32 27.86 25.54 25.20 25.45 26.02 26.64 26.61 26.46 26.40 26.73 27.62 28.67 30.31 32.79 35.31 36.11 36.21 36.71 37.55 37.84 37.92 37.75 36.69 34.40 31.62 28.97 28.74 28.57 28.53 28.45 28.47 28.48 28.44 28.47 28.55 28.41 28.33 28.27 28.45 28.97 29.44 29.82 30.10
22.67 22.62 22.46 22.47 22.64 22.74 22.92 23.03 23.30 23.49 23.59 23.71 23.68 23.68 23.82 24.03 24.58 24.86 24.82 24.79 24.78 24.71 24.73 24.91 25.14 26.56 27.12 24.58 23.92 23.98 24.41 25.07 25.15 25.16 25.23 25.55 26.61 27.94 29.53 31.62 34.48 36.12 36.90 37.09 37.41 37.53 37.62 37.66 37.36 36.05 33.48 29.42 27.72 27.22 27.29 27.32 27.41 27.40 27.34 27.28 27.49 27.38 27.16 27.10 27.35 27.86 28.25 28.30 28.38
22.00 21.87 21.77 21.90 22.05 22.13 22.27 22.52 22.72 22.72 22.64 22.64 22.55 22.77 23.00 23.15 23.40 23.74 23.93 23.86 23.77 24.00 24.34 24.47 24.56 24.82 24.92 24.34 23.77 23.33 23.23 23.59 24.24 24.63 24.87 24.88 26.02 27.42 29.04 30.78 33.47 36.31 38.09 37.74 37.48 37.19 37.03 37.03 36.98 36.59 35.23 32.28 28.54 26.92 26.52 26.46 26.82 26.72 26.68 26.80 26.81 26.46 26.11 26.27 26.92 27.22 27.33 27.31 27.54
20.86 21.01 21.21 21.38 21.40 21.58 21.78 21.91 21.90 21.88 21.85 21.87 22.00 22.44 22.74 22.91 23.02 23.11 23.18 23.33 23.11 23.24 23.51 23.19 24.32 24.37 23.84 23.40 22.96 23.01 23.05 22.98 23.48 23.95 24.31 24.48 25.46 26.42 27.81 29.95 32.19 35.99 38.99 38.56 37.81 37.20 36.68 36.43 36.38 36.29 35.76 34.48 30.67 27.84 26.33 26.30 26.14 26.02 26.13 26.57 26.28 25.97 25.86 26.11 26.55 26.67 26.72 26.75 27.05
20.13 20.35 20.56 20.52 20.66 20.88 21.12 21.12 21.04 21.04 21.25 21.77 21.71 21.78 22.00 22.27 22.46 22.49 22.47 22.27 22.44 22.83 22.96 22.37 23.26 23.18 22.55 21.84 22.25 22.90 23.29 22.86 23.05 23.33 23.59 23.87 25.26 26.20 27.22 29.18 30.79 35.07 38.90 39.06 38.47 37.61 36.80 36.19 36.00 35.83 35.49 34.89 32.03 28.63 25.90 25.67 25.09 24.91 25.07 25.54 25.35 25.19 25.25 25.66 25.70 25.85 26.02 26.42 26.59
19.33 19.52 19.69 19.99 20.02 20.15 20.21 20.23 20.32 20.50 20.71 21.21 20.99 21.09 21.34 21.38 21.41 21.47 21.66 21.71 22.31 23.42 23.89 22.56 22.41 22.02 21.69 21.69 22.12 22.44 22.61 22.59 22.70 22.97 23.37 23.63 25.15 25.90 26.48 27.50 29.26 33.90 38.23 39.09 38.74 38.10 37.40 36.36 35.74 35.32 35.03 34.61 32.65 29.28 26.21 25.46 24.76 24.39 24.42 24.79 24.91 24.99 25.13 25.67 25.76 25.72 25.69 25.68 25.94
18.61 18.83 19.04 19.52 19.49 19.49 19.56 19.68 19.90 20.07 20.09 20.02 20.25 20.61 20.78 20.47 20.64 20.96 21.50 22.34 22.38 22.40 22.36 22.36 21.97 21.74 21.71 21.80 22.22 22.36 22.47 23.07 23.30 23.91 24.31 24.12 23.82 24.08 24.92 26.27 28.15 32.75 37.28 38.67 38.45 38.26 37.78 36.84 35.76 35.07 34.61 34.26 32.76 29.07 25.41 24.34 24.25 23.98 23.67 23.71 24.18 24.42 24.86 25.55 25.63 25.37 25.14 25.35 25.54
18.05 18.16 18.51 18.77 18.83 18.83 18.92 19.18 19.34 19.49 19.68 19.85 20.09 20.31 20.36 19.98 20.31 20.81 21.60 22.72 22.19 21.34 20.86 21.10 20.97 21.06 21.16 21.25 21.78 22.03 22.49 23.39 23.49 24.15 24.78 24.48 23.97 24.08 24.67 25.35 27.34 31.89 36.52 38.35 38.03 38.04 37.96 37.20 35.92 34.96 34.20 33.86 31.93 28.29 24.85 23.56 25.76 25.23 23.91 23.66 23.73 23.87 24.05 24.28 24.72 24.96 25.01 25.14 25.45
17.48 17.67 17.87 17.97 18.24 18.25 18.30 18.52 18.74 19.09 19.33 19.54 19.93 20.11 19.98 19.29 19.65 20.44 21.59 23.09 22.16 21.25 20.66 20.78 20.76 20.76 20.94 21.22 21.30 21.72 22.72 24.71 23.58 22.97 22.99 23.33 23.44 23.89 24.38 24.61 26.36 30.89 35.74 38.05 37.60 37.74 37.74 37.45 36.12 34.89 33.92 33.38 30.54 27.44 25.01 24.47 26.61 25.25 23.48 24.64 23.88 23.58 23.77 24.43 24.37 24.52 24.74 24.92 25.39
16.75 16.96 17.20 17.15 17.28 17.50 17.72 17.81 18.08 18.52 19.02 19.27 19.64 19.82 19.48 18.78 19.10 19.96 21.49 23.83 22.80 21.30 20.22 20.59 20.75 20.94 21.12 21.44 21.28 21.77 22.31 22.71 22.58 22.72 23.02 23.14 22.81 23.00 23.49 23.94 25.32 29.72 34.57 37.42 37.15 37.15 37.33 37.25 36.25 34.97 33.70 32.47 29.82 27.86 26.64 26.38 25.92 24.43 23.00 23.07 23.84 23.98 24.00 24.60 24.69 24.67 24.56 24.70 24.91
16.20 16.33 16.54 16.62 16.62 16.62 16.75 16.97 17.42 17.99 18.40 18.67 18.94 18.82 18.58 18.41 18.79 19.81 21.46 24.08 21.96 20.51 19.73 20.09 20.37 20.74 20.99 20.75 20.87 21.52 21.91 20.96 21.85 22.80 23.40 23.51 22.08 21.44 21.65 22.74 24.02 28.12 32.90 36.45 36.67 36.72 36.83 36.90 36.25 34.99 33.43 31.47 30.18 29.40 28.83 28.49 27.61 26.81 25.69 23.86 25.22 25.44 25.30 25.71 26.05 25.73 25.19 25.13 25.22
15.92 15.91 16.13 16.31 16.31 16.27 16.27 16.45 16.93 17.37 17.64 17.72 17.91 17.84 17.71 17.88 18.24 19.38 21.00 22.86 19.87 19.02 19.14 19.18 19.37 19.65 19.94 20.07 20.01 20.47 20.99 20.99 21.68 22.49 22.99 23.01 21.35 20.48 20.33 21.33 22.58 26.22 30.89 35.29 36.00 36.28 36.36 36.52 36.09 34.93 33.15 30.81 29.62 29.13 28.92 28.77 28.63 28.46 28.11 27.60 27.48 27.39 27.43 27.82 27.29 26.55 26.13 26.30 27.04
15.70 15.61 15.73 15.95 16.08 16.06 16.03 16.05 16.45 16.62 16.78 16.89 17.14 17.23 17.26 17.42 17.75 18.91 20.54 22.30 18.74 17.72 17.94 17.89 18.24 18.33 18.84 20.12 20.19 20.22 20.28 20.28 21.31 21.59 21.18 20.16 20.16 20.46 20.70 20.15 21.13 24.49 29.16 34.03 35.27 35.82 36.00 36.09 35.85 34.96 33.17 30.44 29.43 29.09 28.97 28.69 28.66 28.67 28.53 28.40 28.18 27.88 27.84 28.12 27.58 27.14 26.87 27.14 29.51
15.70 15.52 15.39 15.40 15.66 15.73 15.70 15.61 16.05 16.22 16.34 16.62 16.68 16.73 16.71 16.83 17.46 18.93 20.20 20.30 17.05 16.19 16.50 16.91 17.36 17.64 18.83 22.12 20.19 18.99 18.42 18.30 19.08 20.13 20.51 19.35 20.57 22.80 23.60 20.50 20.39 23.18 27.72 32.91 34.57 35.38 35.67 35.77 35.70 35.15 33.74 31.11 29.61 29.09 29.02 28.66 28.58 28.50 28.39 28.11 27.94 27.69 27.64 28.09 28.13 27.88 27.52 27.30 30.01
15.48 15.34 15.27 15.05 15.12 15.22 15.29 15.30 15.83 16.00 16.10 16.14 16.22 16.29 16.61 17.34 18.43 19.33 19.29 17.35 15.57 15.38 16.26 17.91 18.25 18.22 19.44 23.62 19.82 17.91 17.54 18.15 17.72 18.56 19.88 21.00 22.20 24.97 25.87 21.74 20.42 22.14 26.03 31.28 33.73 34.96 35.38 35.52 35.53 35.35 34.23 31.69 30.14 29.50 29.22 28.63 28.49 28.28 27.99 27.79 27.61 27.19 26.93 27.18 27.53 27.43 27.03 26.44 28.18
14.98 15.26 15.74 15.67 15.00 14.78 14.74 14.76 15.39 15.56 15.61 15.64 15.61 16.65 18.04 19.31 18.22 17.12 16.11 15.03 15.48 16.21 17.59 19.79 19.93 19.29 19.64 22.40 19.46 17.68 17.19 18.03 18.10 18.33 19.27 21.45 22.04 23.94 24.65 21.69 20.89 21.60 24.10 28.70 32.56 34.47 35.09 35.31 35.36 35.36 34.69 32.62 30.73 29.94 29.47 28.66 28.33 27.99 27.66 27.43 27.40 27.12 26.72 26.36 26.37 26.34 26.14 25.46 25.78
MSLP
1016.91 1016.77 1016.75 1016.75 1016.81 1016.87 1016.97 1017.09 1017.19 1017.19 1017.19 1017.19 1017.19 1017.19 1017.15 1017.13 1017.13 1017.15 1017.13 1017.09 1017.03 1016.99 1016.93 1016.87 1016.77 1016.71 1016.61 1016.47 1016.33 1016.19 1016.05 1015.91 1015.77 1015.61 1015.49 1015.37 1015.25 1015.13 1014.93 1014.75 1014.55 1014.33 1014.09 1013.83 1013.53 1013.25 1013.05 1012.91 1012.75 1012.69 1012.75 1012.87 1012.97 1012.91 1012.71 1012.47 1012.15 1011.81 1011.47 1011.15 1010.97 1010.83 1010.77 1010.75 1010.77 1010.75 1010.61 1010.47 1010.33
1017.33 1017.27 1017.25 1017.21 1017.27 1017.31 1017.33 1017.43 1017.49 1017.53 1017.55 1017.55 1017.49 1017.49 1017.47 1017.43 1017.41 1017.41 1017.41 1017.33 1017.31 1017.25 1017.15 1017.09 1017.03 1016.93 1016.81 1016.65 1016.53 1016.37 1016.21 1016.09 1015.99 1015.83 1015.71 1015.55 1015.47 1015.31 1015.13 1014.97 1014.77 1014.55 1014.31 1014.05 1013.77 1013.55 1013.37 1013.21 1013.05 1012.97 1012.99 1013.05 1013.15 1013.15 1013.05 1012.83 1012.47 1012.19 1012.03 1011.83 1011.61 1011.47 1011.37 1011.37 1011.49 1011.47 1011.31 1011.13 1010.99
1017.77 1017.69 1017.65 1017.65 1017.61 1017.61 1017.65 1017.75 1017.81 1017.81 1017.81 1017.81 1017.81 1017.75 1017.71 1017.65 1017.65 1017.61 1017.61 1017.59 1017.55 1017.47 1017.37 1017.31 1017.21 1017.13 1016.97 1016.87 1016.71 1016.55 1016.43 1016.31 1016.15 1016.03 1015.91 1015.77 1015.69 1015.53 1015.37 1015.19 1015.03 1014.81 1014.55 1014.31 1014.09 1013.87 1013.65 1013.47 1013.27 1013.19 1013.21 1013.31 1013.43 1013.53 1013.49 1013.25 1012.83 1012.55 1012.41 1012.33 1012.21 1012.05 1011.97 1011.97 1012.03 1012.03 1011.91 1011.77 1011.65
1018.09 1018.03 1017.97 1017.97 1017.93 1017.93 1017.97 1018.05 1018.05 1018.09 1018.05 1018.05 1018.03 1017.99 1017.93 1017.93 1017.91 1017.87 1017.83 1017.77 1017.69 1017.61 1017.55 1017.53 1017.43 1017.31 1017.19 1017.05 1016.91 1016.77 1016.61 1016.47 1016.33 1016.25 1016.19 1016.05 1015.91 1015.77 1015.61 1015.47 1015.25 1015.03 1014.81 1014.61 1014.37 1014.13 1013.87 1013.61 1013.43 1013.41 1013.49 1013.65 1013.83 1013.97 1013.91 1013.65 1013.27 1012.91 1012.71 1012.71 1012.65 1012.53 1012.43 1012.37 1012.37 1012.33 1012.31 1012.21 1012.09
1018.43 1018.33 1018.27 1018.25 1018.25 1018.27 1018.31 1018.33 1018.33 1018.31 1018.31 1018.31 1018.25 1018.21 1018.21 1018.19 1018.15 1018.13 1018.05 1017.93 1017.87 1017.87 1017.81 1017.75 1017.65 1017.55 1017.43 1017.27 1017.13 1016.93 1016.81 1016.69 1016.55 1016.47 1016.37 1016.25 1016.13 1015.97 1015.81 1015.65 1015.47 1015.27 1015.09 1014.91 1014.65 1014.37 1014.05 1013.77 1013.61 1013.69 1013.87 1014.09 1014.27 1014.37 1014.27 1014.03 1013.61 1013.25 1013.05 1012.99 1012.97 1012.91 1012.83 1012.77 1012.69 1012.65 1012.61 1012.55 1012.43
1018.75 1018.69 1018.61 1018.59 1018.59 1018.55 1018.59 1018.59 1018.59 1018.59 1018.59 1018.55 1018.53 1018.49 1018.47 1018.43 1018.43 1018.37 1018.27 1018.21 1018.19 1018.09 1017.99 1017.91 1017.83 1017.75 1017.65 1017.49 1017.33 1017.19 1017.03 1016.91 1016.81 1016.71 1016.61 1016.47 1016.33 1016.19 1016.03 1015.87 1015.77 1015.61 1015.41 1015.15 1014.87 1014.55 1014.25 1013.97 1013.91 1014.03 1014.25 1014.47 1014.61 1014.69 1014.59 1014.27 1013.91 1013.55 1013.33 1013.25 1013.31 1013.31 1013.25 1013.15 1013.09 1012.99 1012.87 1012.77 1012.65
1018.99 1018.93 1018.91 1018.91 1018.87 1018.87 1018.87 1018.87 1018.83 1018.81 1018.77 1018.77 1018.75 1018.75 1018.75 1018.71 1018.61 1018.55 1018.49 1018.41 1018.33 1018.27 1018.19 1018.15 1018.09 1017.99 1017.87 1017.75 1017.55 1017.37 1017.21 1017.09 1016.99 1016.91 1016.77 1016.69 1016.55 1016.43 1016.31 1016.19 1016.05 1015.87 1015.65 1015.43 1015.05 1014.75 1014.43 1014.25 1014.27 1014.43 1014.65 1014.81 1014.87 1014.91 1014.83 1014.59 1014.19 1013.77 1013.55 1013.59 1013.65 1013.65 1013.55 1013.53 1013.37 1013.25 1013.09 1012.97 1012.83
1019.21 1019.15 1019.15 1019.19 1019.15 1019.19 1019.19 1019.15 1019.09 1019.05 1019.03 1018.99 1018.97 1018.97 1018.97 1018.93 1018.83 1018.75 1018.65 1018.59 1018.53 1018.53 1018.49 1018.43 1018.37 1018.27 1018.13 1017.97 1017.77 1017.59 1017.43 1017.27 1017.15 1017.05 1016.97 1016.87 1016.77 1016.69 1016.59 1016.47 1016.31 1016.13 1015.91 1015.65 1015.31 1014.99 1014.71 1014.59 1014.71 1014.87 1015.03 1015.09 1015.13 1015.13 1014.99 1014.77 1014.33 1013.99 1013.83 1013.93 1013.93 1013.93 1013.87 1013.81 1013.65 1013.47 1013.31 1013.19 1013.05
1019.47 1019.47 1019.47 1019.43 1019.43 1019.43 1019.43 1019.37 1019.31 1019.25 1019.21 1019.21 1019.21 1019.19 1019.13 1019.09 1019.03 1018.93 1018.83 1018.77 1018.81 1018.77 1018.71 1018.65 1018.55 1018.43 1018.27 1018.13 1017.97 1017.77 1017.61 1017.47 1017.33 1017.27 1017.19 1017.09 1017.03 1016.93 1016.81 1016.69 1016.53 1016.37 1016.15 1015.87 1015.55 1015.25 1015.03 1014.99 1015.13 1015.27 1015.37 1015.37 1015.37 1015.33 1015.21 1014.93 1014.55 1014.31 1014.21 1014.21 1014.21 1014.15 1014.13 1014.03 1013.91 1013.75 1013.59 1013.43 1013.37
1019.83 1019.83 1019.77 1019.71 1019.71 1019.69 1019.61 1019.53 1019.49 1019.43 1019.41 1019.41 1019.41 1019.37 1019.27 1019.19 1019.15 1019.13 1019.09 1019.05 1019.03 1018.97 1018.91 1018.81 1018.71 1018.59 1018.41 1018.27 1018.13 1017.97 1017.83 1017.75 1017.65 1017.55 1017.43 1017.33 1017.25 1017.15 1017.05 1016.93 1016.77 1016.59 1016.37 1016.05 1015.77 1015.53 1015.37 1015.41 1015.53 1015.61 1015.69 1015.65 1015.61 1015.55 1015.41 1015.19 1014.93 1014.71 1014.59 1014.53 1014.43 1014.37 1014.27 1014.21 1014.09 1013.93 1013.81 1013.69 1013.65
1020.21 1020.19 1020.09 1020.03 1019.97 1019.91 1019.83 1019.75 1019.65 1019.59 1019.55 1019.55 1019.53 1019.49 1019.47 1019.37 1019.33 1019.31 1019.27 1019.21 1019.15 1019.09 1019.03 1018.97 1018.83 1018.71 1018.55 1018.47 1018.33 1018.21 1018.13 1017.99 1017.87 1017.77 1017.69 1017.59 1017.49 1017.41 1017.31 1017.19 1017.03 1016.81 1016.55 1016.27 1015.99 1015.83 1015.81 1015.81 1015.87 1015.91 1015.87 1015.87 1015.81 1015.77 1015.69 1015.47 1015.27 1015.05 1014.91 1014.81 1014.69 1014.55 1014.41 1014.33 1014.21 1014.13 1014.03 1013.93 1013.83
1020.49 1020.43 1020.33 1020.27 1020.21 1020.13 1020.03 1019.97 1019.91 1019.81 1019.75 1019.71 1019.69 1019.61 1019.59 1019.53 1019.49 1019.47 1019.41 1019.33 1019.27 1019.21 1019.15 1019.03 1018.93 1018.83 1018.75 1018.69 1018.59 1018.47 1018.37 1018.27 1018.15 1018.03 1017.93 1017.81 1017.71 1017.65 1017.55 1017.43 1017.25 1016.99 1016.75 1016.49 1016.33 1016.25 1016.19 1016.15 1016.13 1016.09 1016.09 1016.05 1016.09 1016.05 1015.97 1015.81 1015.59 1015.41 1015.21 1015.09 1014.97 1014.77 1014.59 1014.47 1014.41 1014.33 1014.31 1014.19 1014.03
1020.71 1020.61 1020.55 1020.49 1020.43 1020.33 1020.25 1020.19 1020.13 1020.03 1019.93 1019.91 1019.83 1019.77 1019.71 1019.69 1019.61 1019.55 1019.53 1019.47 1019.41 1019.33 1019.25 1019.13 1019.05 1018.99 1018.93 1018.87 1018.81 1018.71 1018.65 1018.53 1018.41 1018.25 1018.13 1018.03 1017.93 1017.83 1017.71 1017.59 1017.41 1017.19 1016.97 1016.77 1016.69 1016.59 1016.47 1016.37 1016.33 1016.31 1016.33 1016.37 1016.41 1016.37 1016.25 1016.05 1015.87 1015.69 1015.53 1015.37 1015.21 1015.03 1014.87 1014.71 1014.65 1014.61 1014.59 1014.47 1014.31
1020.87 1020.81 1020.75 1020.69 1020.61 1020.53 1020.47 1020.41 1020.31 1020.21 1020.15 1020.05 1019.99 1019.91 1019.87 1019.83 1019.75 1019.69 1019.61 1019.55 1019.49 1019.43 1019.33 1019.27 1019.21 1019.15 1019.09 1019.05 1018.97 1018.91 1018.83 1018.75 1018.61 1018.49 1018.37 1018.21 1018.13 1018.03 1017.91 1017.75 1017.55 1017.41 1017.21 1017.09 1016.97 1016.81 1016.69 1016.55 1016.55 1016.55 1016.59 1016.59 1016.59 1016.55 1016.43 1016.31 1016.15 1015.99 1015.83 1015.69 1015.53 1015.37 1015.25 1015.15 1015.03 1014.91 1014.81 1014.71 1014.61
1021.09 1020.99 1020.93 1020.91 1020.77 1020.71 1020.65 1020.55 1020.53 1020.43 1020.37 1020.27 1020.19 1020.05 1019.99 1019.97 1019.91 1019.81 1019.71 1019.69 1019.61 1019.55 1019.49 1019.43 1019.37 1019.31 1019.21 1019.19 1019.13 1019.05 1019.03 1018.93 1018.83 1018.69 1018.55 1018.41 1018.27 1018.19 1018.05 1017.93 1017.81 1017.65 1017.49 1017.33 1017.15 1016.99 1016.83 1016.75 1016.75 1016.75 1016.77 1016.81 1016.77 1016.69 1016.61 1016.53 1016.43 1016.33 1016.21 1016.09 1015.93 1015.77 1015.65 1015.53 1015.37 1015.19 1015.03 1014.99 1014.97
1021.31 1021.25 1021.15 1021.05 1020.97 1020.91 1020.83 1020.77 1020.71 1020.65 1020.55 1020.47 1020.37 1020.25 1020.15 1020.13 1020.05 1019.93 1019.87 1019.83 1019.77 1019.71 1019.65 1019.59 1019.53 1019.47 1019.41 1019.31 1019.25 1019.21 1019.15 1019.05 1018.97 1018.87 1018.75 1018.59 1018.49 1018.37 1018.27 1018.15 1017.99 1017.83 1017.65 1017.49 1017.31 1017.15 1017.03 1016.99 1016.97 1016.97 1016.97 1016.99 1016.97 1016.93 1016.87 1016.81 1016.71 1016.61 1016.53 1016.43 1016.27 1016.15 1015.99 1015.83 1015.69 1015.53 1015.37 1015.27 1015.27
1021.59 1021.53 1021.41 1021.27 1021.19 1021.13 1021.05 1021.03 1020.93 1020.87 1020.81 1020.71 1020.59 1020.49 1020.43 1020.37 1020.27 1020.19 1020.09 1020.03 1019.99 1019.93 1019.87 1019.83 1019.75 1019.69 1019.59 1019.49 1019.43 1019.37 1019.31 1019.25 1019.13 1019.05 1018.99 1018.91 1018.75 1018.61 1018.47 1018.31 1018.13 1017.97 1017.77 1017.59 1017.47 1017.33 1017.27 1017.25 1017.25 1017.25 1017.25 1017.25 1017.25 1017.25 1017.19 1017.13 1017.05 1016.93 1016.81 1016.71 1016.55 1016.43 1016.27 1016.13 1015.99 1015.87 1015.71 1015.59 1015.59
1021.91 1021.81 1021.69 1021.55 1021.47 1021.37 1021.31 1021.25 1021.15 1021.09 1021.03 1020.97 1020.87 1020.77 1020.71 1020.61 1020.53 1020.43 1020.33 1020.27 1020.21 1020.15 1020.13 1020.05 1019.99 1019.93 1019.87 1019.75 1019.65 1019.55 1019.49 1019.47 1019.37 1019.31 1019.25 1019.13 1018.97 1018.77 1018.55 1018.37 1018.19 1017.99 1017.87 1017.75 1017.65 1017.61 1017.59 1017.55 1017.55 1017.55 1017.55 1017.53 1017.49 1017.49 1017.47 1017.43 1017.31 1017.21 1017.05 1016.91 1016.75 1016.61 1016.49 1016.37 1016.27 1016.19 1016.05 1015.97 1015.87
1022.19 1022.09 1021.97 1021.87 1021.75 1021.65 1021.55 1021.47 1021.37 1021.31 1021.25 1021.19 1021.15 1021.05 1020.97 1020.87 1020.81 1020.71 1020.61 1020.53 1020.43 1020.41 1020.37 1020.27 1020.21 1020.15 1020.09 1019.99 1019.91 1019.81 1019.69 1019.65 1019.59 1019.49 1019.37 1019.19 1019.03 1018.83 1018.61 1018.43 1018.27 1018.13 1017.99 1017.93 1017.91 1017.91 1017.87 1017.87 1017.87 1017.83 1017.83 1017.81 1017.77 1017.75 1017.71 1017.65 1017.55 1017.43 1017.27 1017.13 1016.93 1016.81 1016.69 1016.59 1016.53 1016.47 1016.37 1016.27 1016.19
1022.49 1022.41 1022.31 1022.19 1022.05 1021.93 1021.83 1021.75 1021.65 1021.59 1021.49 1021.41 1021.33 1021.25 1021.19 1021.09 1021.03 1020.93 1020.87 1020.81 1020.71 1020.65 1020.59 1020.53 1020.43 1020.37 1020.27 1020.19 1020.13 1019.99 1019.87 1019.77 1019.69 1019.59 1019.43 1019.27 1019.09 1018.91 1018.69 1018.49 1018.37 1018.27 1018.21 1018.19 1018.19 1018.19 1018.19 1018.19 1018.19 1018.15 1018.13 1018.09 1018.05 1017.99 1017.93 1017.83 1017.75 1017.61 1017.49 1017.33 1017.15 1017.03 1016.91 1016.83 1016.75 1016.65 1016.59 1016.49 1016.41
1022.81 1022.71 1022.61 1022.49 1022.37 1022.21 1022.13 1021.99 1021.93 1021.83 1021.75 1021.65 1021.55 1021.47 1021.41 1021.33 1021.25 1021.15 1021.13 1021.03 1020.91 1020.81 1020.75 1020.71 1020.65 1020.55 1020.47 1020.33 1020.25 1020.15 1020.03 1019.87 1019.75 1019.65 1019.55 1019.37 1019.19 1019.03 1018.83 1018.65 1018.55 1018.47 1018.41 1018.37 1018.37 1018.41 1018.43 1018.47 1018.47 1018.43 1018.37 1018.33 1018.27 1018.21 1018.13 1018.03 1017.93 1017.77 1017.65 1017.53 1017.37 1017.25 1017.13 1017.03 1016.97 1016.87 1016.81 1016.71 1016.59
1023.05 1022.97 1022.87 1022.75 1022.65 1022.53 1022.41 1022.27 1022.15 1022.05 1021.97 1021.87 1021.81 1021.71 1021.61 1021.53 1021.47 1021.41 1021.33 1021.25 1021.13 1021.03 1020.97 1020.87 1020.81 1020.75 1020.65 1020.55 1020.43 1020.31 1020.19 1019.99 1019.87 1019.77 1019.65 1019.49 1019.37 1019.25 1019.05 1018.83 1018.75 1018.65 1018.59 1018.53 1018.55 1018.61 1018.65 1018.69 1018.69 1018.65 1018.59 1018.53 1018.47 1018.41 1018.31 1018.19 1018.05 1017.93 1017.81 1017.69 1017.59 1017.43 1017.31 1017.21 1017.15 1017.09 1017.03 1016.93 1016.83
1023.27 1023.19 1023.05 1022.97 1022.87 1022.75 1022.61 1022.49 1022.41 1022.27 1022.19 1022.09 1021.99 1021.93 1021.87 1021.77 1021.69 1021.61 1021.53 1021.43 1021.33 1021.27 1021.21 1021.09 1020.99 1020.91 1020.83 1020.77 1020.65 1020.53 1020.37 1020.21 1020.05 1019.93 1019.83 1019.75 1019.61 1019.47 1019.27 1019.05 1018.93 1018.83 1018.81 1018.75 1018.71 1018.75 1018.77 1018.83 1018.87 1018.87 1018.81 1018.75 1018.65 1018.55 1018.43 1018.27 1018.19 1018.05 1017.93 1017.81 1017.71 1017.61 1017.49 1017.41 1017.31 1017.25 1017.19 1017.09 1016.99
1023.49 1023.37 1023.27 1023.15 1023.05 1022.93 1022.81 1022.71 1022.59 1022.49 1022.41 1022.33 1022.25 1022.19 1022.09 1021.99 1021.91 1021.81 1021.71 1021.61 1021.53 1021.47 1021.37 1021.31 1021.25 1021.13 1021.03 1020.99 1020.91 1020.77 1020.65 1020.49 1020.37 1020.25 1020.13 1019.99 1019.91 1019.75 1019.55 1019.31 1019.13 1019.05 1019.03 1018.93 1018.83 1018.81 1018.87 1018.93 1018.97 1018.99 1018.99 1018.91 1018.81 1018.65 1018.53 1018.41 1018.31 1018.15 1018.03 1017.91 1017.81 1017.71 1017.59 1017.53 1017.41 1017.33 1017.27 1017.21 1017.19
1023.69 1023.55 1023.43 1023.37 1023.25 1023.15 1023.03 1022.91 1022.81 1022.75 1022.69 1022.59 1022.49 1022.41 1022.31 1022.21 1022.09 1021.99 1021.91 1021.77 1021.69 1021.61 1021.55 1021.47 1021.41 1021.31 1021.25 1021.19 1021.13 1021.03 1020.93 1020.81 1020.69 1020.55 1020.43 1020.31 1020.15 1020.03 1019.81 1019.59 1019.37 1019.25 1019.21 1019.15 1019.03 1018.93 1018.91 1018.93 1018.99 1019.09 1019.13 1019.05 1018.97 1018.81 1018.69 1018.55 1018.43 1018.31 1018.21 1018.09 1017.99 1017.87 1017.75 1017.61 1017.55 1017.49 1017.43 1017.37 1017.31
1023.81 1023.71 1023.65 1023.55 1023.47 1023.33 1023.21 1023.15 1023.05 1022.99 1022.91 1022.81 1022.71 1022.61 1022.53 1022.41 1022.27 1022.15 1022.09 1021.97 1021.87 1021.77 1021.71 1021.61 1021.55 1021.49 1021.43 1021.37 1021.31 1021.25 1021.15 1021.03 1020.93 1020.81 1020.69 1020.55 1020.37 1020.21 1020.05 1019.83 1019.59 1019.43 1019.37 1019.37 1019.25 1019.13 1019.03 1018.97 1018.99 1019.05 1019.15 1019.19 1019.13 1018.99 1018.83 1018.71 1018.61 1018.49 1018.41 1018.31 1018.21 1018.13 1018.03 1017.91 1017.77 1017.69 1017.61 1017.55 1017.49
1023.93 1023.87 1023.81 1023.71 1023.61 1023.53 1023.47 1023.37 1023.27 1023.19 1023.09 1022.99 1022.91 1022.81 1022.71 1022.59 1022.43 1022.33 1022.25 1022.15 1022.05 1021.99 1021.91 1021.83 1021.77 1021.71 1021.61 1021.59 1021.49 1021.47 1021.41 1021.27 1021.13 1020.99 1020.91 1020.77 1020.61 1020.41 1020.21 1020.03 1019.77 1019.55 1019.47 1019.43 1019.41 1019.31 1019.19 1019.09 1019.03 1019.05 1019.15 1019.25 1019.21 1019.15 1019.05 1018.93 1018.81 1018.71 1018.61 1018.53 1018.43 1018.37 1018.27 1018.19 1018.05 1017.93 1017.83 1017.75 1017.61
1024.13 1024.05 1023.97 1023.83 1023.75 1023.69 1023.59 1023.49 1023.37 1023.27 1023.21 1023.15 1023.05 1022.97 1022.83 1022.69 1022.59 1022.49 1022.41 1022.33 1022.27 1022.19 1022.09 1022.05 1021.99 1021.91 1021.83 1021.77 1021.71 1021.65 1021.55 1021.47 1021.33 1021.21 1021.05 1020.87 1020.75 1020.55 1020.37 1020.21 1019.97 1019.69 1019.49 1019.47 1019.47 1019.43 1019.37 1019.25 1019.15 1019.09 1019.13 1019.21 1019.27 1019.25 1019.19 1019.09 1018.99 1018.87 1018.77 1018.69 1018.59 1018.53 1018.43 1018.31 1018.21 1018.13 1017.99 1017.87 1017.75
1024.21 1024.15 1024.05 1023.97 1023.91 1023.81 1023.71 1023.61 1023.55 1023.47 1023.37 1023.27 1023.15 1023.05 1022.93 1022.83 1022.75 1022.69 1022.59 1022.53 1022.47 1022.41 1022.37 1022.31 1022.19 1022.09 1022.05 1021.99 1021.93 1021.83 1021.71 1021.61 1021.53 1021.37 1021.21 1021.05 1020.87 1020.71 1020.55 1020.37 1020.15 1019.81 1019.53 1019.47 1019.49 1019.49 1019.49 1019.43 1019.33 1019.25 1019.21 1019.25 1019.33 1019.37 1019.31 1019.21 1019.15 1019.05 1018.93 1018.77 1018.69 1018.59 1018.49 1018.37 1018.25 1018.15 1018.03 1017.93 1017.81
1024.31 1024.25 1024.19 1024.09 1024.03 1023.97 1023.87 1023.77 1023.71 1023.61 1023.49 1023.37 1023.31 1023.21 1023.09 1022.99 1022.97 1022.91 1022.83 1022.75 1022.71 1022.65 1022.59 1022.49 1022.37 1022.31 1022.27 1022.21 1022.13 1021.99 1021.91 1021.81 1021.71 1021.55 1021.43 1021.27 1021.09 1020.93 1020.75 1020.53 1020.31 1019.99 1019.69 1019.53 1019.49 1019.49 1019.53 1019.53 1019.49 1019.43 1019.37 1019.31 1019.41 1019.41 1019.37 1019.27 1019.21 1019.15 1019.03 1018.87 1018.77 1018.65 1018.53 1018.41 1018.31 1018.21 1018.09 1017.97 1017.87
1024.43 1024.37 1024.31 1024.25 1024.15 1024.09 1024.03 1023.97 1023.87 1023.75 1023.61 1023.55 1023.47 1023.37 1023.31 1023.25 1023.19 1023.13 1023.03 1022.97 1022.87 1022.77 1022.65 1022.53 1022.49 1022.47 1022.41 1022.31 1022.25 1022.15 1022.05 1021.93 1021.83 1021.75 1021.61 1021.53 1021.33 1021.15 1020.97 1020.75 1020.53 1020.19 1019.81 1019.59 1019.55 1019.53 1019.49 1019.53 1019.55 1019.53 1019.47 1019.41 1019.43 1019.43 1019.41 1019.33 1019.31 1019.25 1019.13 1019.03 1018.91 1018.77 1018.65 1018.55 1018.43 1018.31 1018.21 1018.13 1017.97
1024.55 1024.53 1024.47 1024.37 1024.31 1024.25 1024.15 1024.09 1023.97 1023.87 1023.77 1023.71 1023.65 1023.55 1023.49 1023.47 1023.37 1023.31 1023.19 1023.09 1022.99 1022.87 1022.77 1022.69 1022.65 1022.61 1022.55 1022.47 1022.37 1022.27 1022.15 1022.05 1021.97 1021.87 1021.77 1021.69 1021.55 1021.37 1021.19 1020.97 1020.71 1020.37 1019.99 1019.75 1019.65 1019.59 1019.55 1019.55 1019.61 1019.61 1019.59 1019.55 1019.59 1019.59 1019.53 1019.49 1019.41 1019.33 1019.25 1019.15 1019.03 1018.93 1018.83 1018.71 1018.59 1018.49 1018.41 1018.27 1018.15
1024.71 1024.65 1024.59 1024.53 1024.49 1024.41 1024.31 1024.19 1024.09 1023.99 1023.91 1023.83 1023.77 1023.71 1023.65 1023.59 1023.47 1023.37 1023.31 1023.19 1023.13 1023.05 1022.99 1022.93 1022.93 1022.87 1022.77 1022.69 1022.55 1022.43 1022.31 1022.21 1022.15 1022.03 1021.91 1021.81 1021.69 1021.55 1021.37 1021.19 1020.99 1020.61 1020.25 1019.97 1019.83 1019.75 1019.65 1019.65 1019.65 1019.71 1019.75 1019.71 1019.75 1019.75 1019.71 1019.61 1019.53 1019.43 1019.37 1019.31 1019.21 1019.09 1018.99 1018.91 1018.77 1018.69 1018.55 1018.43 1018.31
1024.87 1024.81 1024.75 1024.69 1024.63 1024.53 1024.43 1024.31 1024.21 1024.13 1024.05 1023.99 1023.93 1023.87 1023.77 1023.71 1023.61 1023.53 1023.43 1023.31 1023.25 1023.21 1023.19 1023.15 1023.09 1022.99 1022.93 1022.87 1022.71 1022.61 1022.53 1022.33 1022.27 1022.19 1022.09 1021.99 1021.87 1021.71 1021.59 1021.47 1021.27 1020.93 1020.53 1020.21 1020.05 1019.93 1019.83 1019.77 1019.77 1019.81 1019.87 1019.87 1019.91 1019.91 1019.83 1019.75 1019.61 1019.59 1019.53 1019.43 1019.33 1019.25 1019.15 1019.05 1018.93 1018.83 1018.71 1018.59 1018.47
1024.99 1024.93 1024.91 1024.81 1024.75 1024.69 1024.63 1024.49 1024.41 1024.31 1024.25 1024.21 1024.13 1023.99 1023.93 1023.87 1023.81 1023.75 1023.61 1023.47 1023.41 1023.37 1023.33 1023.25 1023.19 1023.13 1023.03 1022.93 1022.83 1022.77 1022.69 1022.55 1022.47 1022.37 1022.27 1022.19 1022.05 1021.93 1021.81 1021.69 1021.53 1021.21 1020.81 1020.43 1020.27 1020.13 1019.99 1019.91 1019.87 1019.91 1019.99 1020.05 1020.05 1019.97 1019.91 1019.81 1019.71 1019.69 1019.65 1019.55 1019.47 1019.37 1019.27 1019.15 1019.05 1018.93 1018.83 1018.71 1018.55
1025.13 1025.09 1025.05 1024.97 1024.91 1024.83 1024.77 1024.69 1024.59 1024.49 1024.47 1024.41 1024.31 1024.21 1024.13 1024.03 1023.97 1023.87 1023.75 1023.59 1023.53 1023.49 1023.47 1023.41 1023.33 1023.25 1023.19 1023.09 1022.99 1022.91 1022.83 1022.77 1022.69 1022.55 1022.47 1022.37 1022.31 1022.21 1022.09 1021.97 1021.75 1021.47 1021.05 1020.61 1020.43 1020.27 1020.13 1019.97 1019.93 1019.97 1020.05 1020.13 1020.09 1019.99 1019.91 1019.81 1019.75 1019.65 1019.59 1019.55 1019.47 1019.41 1019.31 1019.19 1019.05 1018.99 1018.91 1018.77 1018.61
1025.25 1025.21 1025.15 1025.13 1025.05 1024.97 1024.91 1024.83 1024.75 1024.69 1024.63 1024.59 1024.49 1024.41 1024.33 1024.21 1024.13 1023.99 1023.87 1023.71 1023.75 1023.75 1023.69 1023.59 1023.53 1023.47 1023.37 1023.31 1023.25 1023.15 1023.09 1022.99 1022.91 1022.81 1022.71 1022.61 1022.53 1022.43 1022.33 1022.19 1021.99 1021.71 1021.27 1020.81 1020.55 1020.37 1020.21 1020.05 1019.97 1019.97 1020.05 1020.13 1020.05 1019.97 1019.87 1019.77 1019.69 1019.59 1019.53 1019.43 1019.41 1019.33 1019.25 1019.15 1019.05 1018.97 1018.87 1018.75 1018.59
1025.31 1025.27 1025.25 1025.25 1025.19 1025.13 1025.03 1024.97 1024.91 1024.83 1024.77 1024.71 1024.63 1024.49 1024.41 1024.31 1024.21 1024.13 1024.03 1023.87 1023.91 1023.93 1023.91 1023.83 1023.77 1023.71 1023.61 1023.49 1023.43 1023.33 1023.25 1023.21 1023.13 1023.05 1022.97 1022.87 1022.75 1022.61 1022.49 1022.37 1022.15 1021.91 1021.49 1020.99 1020.69 1020.47 1020.27 1020.13 1019.99 1019.97 1020.03 1020.09 1020.05 1019.97 1019.87 1019.75 1019.65 1019.55 1019.47 1019.41 1019.33 1019.27 1019.19 1019.13 1019.03 1018.97 1018.87 1018.75 1018.53
1025.37 1025.33 1025.33 1025.31 1025.25 1025.19 1025.15 1025.09 1025.03 1024.97 1024.91 1024.83 1024.71 1024.63 1024.53 1024.43 1024.33 1024.25 1024.15 1024.09 1024.13 1024.13 1024.13 1024.05 1023.99 1023.91 1023.77 1023.59 1023.55 1023.49 1023.43 1023.37 1023.27 1023.21 1023.13 1022.99 1022.87 1022.65 1022.49 1022.43 1022.27 1022.03 1021.65 1021.19 1020.81 1020.55 1020.37 1020.19 1020.05 1019.99 1019.99 1020.09 1020.05 1019.97 1019.83 1019.75 1019.61 1019.53 1019.47 1019.37 1019.27 1019.21 1019.19 1019.09 1018.99 1018.93 1018.83 1018.75 1018.55
1025.43 1025.41 1025.33 1025.33 1025.31 1025.25 1025.21 1025.15 1025.09 1025.03 1024.97 1024.91 1024.81 1024.71 1024.65 1024.55 1024.47 1024.37 1024.31 1024.31 1024.33 1024.33 1024.27 1024.21 1024.13 1024.05 1023.91 1023.71 1023.69 1023.65 1023.59 1023.47 1023.41 1023.31 1023.19 1023.05 1022.91 1022.65 1022.49 1022.47 1022.31 1022.13 1021.77 1021.37 1020.97 1020.69 1020.49 1020.31 1020.13 1019.99 1019.93 1019.99 1019.99 1019.93 1019.81 1019.71 1019.59 1019.49 1019.41 1019.33 1019.25 1019.19 1019.13 1019.05 1018.99 1018.93 1018.83 1018.75 1018.61
1025.49 1025.43 1025.41 1025.37 1025.37 1025.33 1025.27 1025.25 1025.15 1025.09 1025.03 1024.97 1024.91 1024.83 1024.75 1024.63 1024.65 1024.63 1024.55 1024.53 1024.53 1024.49 1024.43 1024.33 1024.21 1024.13 1023.99 1023.91 1023.83 1023.77 1023.71 1023.61 1023.47 1023.37 1023.25 1023.09 1022.93 1022.77 1022.61 1022.49 1022.31 1022.13 1021.83 1021.49 1021.09 1020.77 1020.55 1020.37 1020.19 1020.03 1019.93 1019.93 1019.97 1019.91 1019.77 1019.71 1019.55 1019.43 1019.37 1019.31 1019.25 1019.15 1019.09 1019.03 1018.97 1018.91 1018.83 1018.71 1018.61
Wind_Speed
12 11 10 10 9 8 8 8 8 8 7 7 7 7 6 6 6 6 6 6 6 6 6 6 6 7 8 10 10 11 11 11 12 12 13 13 12 12 12 11 11 11 11 11 10 10 9 10 9 8 7 7 8 8 8 8 9 10 11 11 8 8 8 8 8 9 9 9 9
13 13 12 11 10 9 8 8 8 8 7 7 6 6 6 6 6 6 6 6 6 6 5 5 6 8 9 10 10 10 11 11 12 12 12 13 13 13 12 11 12 12 12 11 11 9 8 8 8 7 7 7 7 8 8 8 8 10 11 13 10 9 10 11 12 13 13 12 12
12 12 12 11 10 9 8 8 8 8 8 7 7 6 6 6 6 6 6 6 6 6 6 6 7 8 9 10 9 9 10 11 12 12 12 12 13 13 13 12 12 12 12 11 10 9 8 8 8 8 8 8 9 8 8 9 9 9 10 11 9 8 8 8 9 10 10 10 12
12 12 12 12 13 12 10 8 9 9 8 7 7 7 7 7 6 6 6 7 7 7 7 7 7 7 8 9 9 10 10 12 12 12 12 12 12 13 13 13 12 12 12 11 11 10 10 9 8 9 9 10 10 9 8 7 8 8 8 8 8 8 8 7 8 8 7 8 9
13 12 12 12 13 12 10 9 10 9 8 7 7 7 7 7 6 6 6 7 7 8 8 9 8 8 8 9 10 10 11 12 12 11 11 11 12 12 13 13 12 12 11 11 11 11 11 11 9 9 9 9 8 8 8 8 7 7 7 7 7 8 8 7 7 7 7 8 8
12 12 12 12 12 11 10 10 10 10 9 8 9 9 8 7 7 7 7 7 8 9 10 10 9 9 9 10 10 9 9 10 10 10 11 11 11 12 12 13 13 12 11 11 11 12 11 11 9 9 8 8 7 8 8 8 7 7 8 8 8 8 8 8 7 8 8 10 10
12 12 13 13 12 12 11 10 10 9 9 9 10 10 10 8 8 8 8 8 8 8 9 9 9 9 9 9 9 9 9 9 9 10 11 11 11 11 12 12 12 12 11 11 12 12 11 11 10 9 8 7 6 8 9 8 7 8 9 9 8 8 8 9 8 8 9 13 13
12 12 12 12 12 12 11 11 10 9 9 9 10 11 11 10 10 9 9 8 8 8 8 8 9 10 10 10 9 9 9 10 10 10 10 10 11 11 11 11 11 11 11 11 12 12 12 11 9 9 8 7 6 7 9 10 10 10 10 10 8 8 8 8 8 9 10 13 14
11 11 11 11 11 11 11 10 10 10 10 10 10 11 11 11 10 10 9 8 8 8 8 7 9 10 10 10 10 10 10 9 10 10 10 10 11 11 10 10 10 10 10 10 12 13 13 10 9 8 8 7 7 8 9 11 12 12 11 8 8 8 8 9 10 10 11 13 14
11 11 11 10 10 10 10 10 10 11 11 11 11 11 11 11 10 9 8 7 7 8 8 8 9 10 10 11 10 10 10 9 9 9 10 10 10 10 10 9 10 10 10 10 11 12 12 10 10 9 9 8 9 10 11 12 12 12 10 7 8 9 10 10 11 12 12 12 13
11 10 10 9 10 10 9 9 9 9 10 10 10 10 10 10 10 9 8 7 7 8 8 8 9 9 10 10 10 10 10 9 9 9 9 9 10 10 10 9 10 10 10 10 10 10 10 9 10 11 11 10 10 10 11 12 12 12 11 9 9 10 10 11 11 11 12 12 13
10 10 9 9 9 9 9 9 8 8 9 9 9 9 8 8 9 8 8 8 8 8 8 8 9 9 9 9 9 10 10 10 10 9 9 9 9 9 9 9 10 10 10 11 10 9 9 10 11 12 12 11 9 9 10 12 12 12 12 12 11 11 11 12 12 11 11 12 13
10 9 9 9 9 9 9 9 8 8 8 8 8 7 7 7 8 8 8 8 8 7 7 7 8 8 8 8 9 9 9 9 10 9 9 9 9 9 9 9 10 10 10 10 9 9 9 10 12 12 12 12 10 10 10 12 12 12 12 13 13 13 13 13 12 11 11 12 13
10 9 9 9 9 9 9 9 8 8 8 8 8 7 7 7 7 7 7 7 7 7 7 7 7 7 7 8 8 9 9 9 9 10 9 9 9 9 9 9 9 10 9 9 9 10 10 11 12 12 12 12 11 11 11 12 12 12 12 13 13 13 13 13 12 11 11 13 13
10 10 9 9 9 8 8 8 7 8 8 9 8 8 7 7 8 8 8 8 7 7 7 7 7 7 8 8 8 9 9 9 9 10 10 10 9 9 9 9 9 9 9 9 9 10 11 11 11 11 11 11 12 12 12 12 12 12 12 12 13 13 13 13 12 11 11 12 13
11 10 10 10 10 9 9 8 7 8 8 9 9 9 9 8 8 9 9 9 8 8 8 9 8 8 8 9 9 9 9 9 9 9 10 9 9 9 9 9 9 9 9 10 10 11 11 11 11 11 11 11 11 11 11 11 11 11 12 12 12 12 12 13 12 12 12 12 12
12 11 11 11 11 11 10 9 8 8 8 9 10 10 9 9 9 9 10 10 9 9 9 10 9 9 9 9 9 8 8 8 9 9 9 9 8 8 8 9 9 9 10 10 11 11 12 11 11 10 10 10 10 10 10 10 10 10 11 11 11 12 12 12 12 12 12 12 12
12 11 11 11 11 11 11 10 9 9 9 9 9 9 9 9 9 9 9 10 10 10 10 10 9 9 9 9 8 8 8 8 9 9 8 8 8 7 7 8 9 9 10 11 11 12 12 12 11 10 10 10 9 9 9 9 9 10 10 10 11 11 11 12 12 11 11 12 12
11 11 11 11 11 11 11 11 10 9 9 9 8 8 9 9 9 8 8 9 9 9 9 10 9 9 9 9 8 8 8 7 8 9 9 8 8 8 8 8 8 9 9 10 10 11 11 11 11 10 10 9 9 9 9 9 8 9 9 9 10 10 11 11 11 11 10 11 11
10 11 11 10 10 10 10 10 10 9 9 9 9 9 9 9 8 8 8 8 8 8 8 8 9 9 9 9 9 9 8 7 8 9 9 9 9 9 8 8 8 9 9 9 9 10 10 10 10 10 9 9 9 9 9 8 8 9 9 8 9 10 10 10 10 10 10 10 10
9 9 9 9 9 9 9 9 9 9 9 9 9 9 9 9 9 9 8 8 8 8 8 8 8 9 9 9 9 9 8 8 8 9 9 9 10 10 9 8 8 8 8 8 9 9 9 9 9 9 8 8 8 8 8 8 8 8 8 8 8 9 9 9 10 10 10 10 9
8 8 8 8 8 8 9 9 8 9 9 9 9 9 9 9 9 9 8 8 8 8 8 7 8 8 9 9 9 9 9 8 9 9 9 10 10 10 9 7 8 8 8 8 8 8 8 8 8 8 8 7 7 7 7 7 8 8 8 8 8 9 9 9 9 9 9 9 9
7 7 7 7 8 8 8 8 8 8 9 9 9 9 9 8 8 8 8 8 8 7 7 6 7 7 8 8 8 8 9 9 10 10 10 11 10 10 9 7 8 8 9 8 7 7 7 7 7 7 7 7 7 7 7 7 7 7 8 8 8 8 8 8 8 8 8 8 8
7 7 7 6 7 7 8 8 8 8 9 9 8 8 8 8 8 8 8 8 8 7 7 6 6 6 7 7 8 8 8 9 9 10 10 11 10 10 9 8 7 8 9 9 10 9 8 7 6 6 7 7 7 7 8 8 8 8 9 9 9 8 8 8 8 8 8 8 8
7 7 7 7 7 7 7 8 8 8 8 8 8 8 8 7 7 7 8 8 8 8 8 7 7 6 6 7 7 8 8 8 8 9 9 10 10 10 9 7 6 7 9 10 14 15 13 11 8 7 6 7 7 8 8 9 9 9 9 9 9 9 9 9 9 9 9 8 8
6 7 7 7 7 7 8 8 8 7 7 7 8 8 7 6 7 7 7 8 8 8 8 8 7 7 7 7 7 8 8 7 7 8 8 9 9 9 8 7 6 6 8 12 15 16 16 15 13 10 7 5 6 6 7 7 7 8 8 8 8 8 9 9 9 9 9 8 8
6 6 6 6 7 7 7 7 7 7 7 7 7 7 7 7 7 7 8 8 8 7 7 7 7 7 7 6 7 8 7 6 7 7 7 8 9 9 9 7 6 5 8 13 15 16 16 16 15 13 10 6 6 6 6 6 7 7 7 6 7 7 7 7 8 8 9 8 8
6 6 6 7 7 7 7 7 7 7 7 7 7 7 7 7 8 8 7 7 7 7 6 6 6 5 5 6 7 7 7 7 7 7 7 8 9 9 9 8 7 7 10 15 15 16 16 16 16 15 13 9 6 5 5 6 6 6 6 6 6 6 7 6 7 7 7 8 8
6 6 7 7 7 7 7 8 8 7 7 7 7 7 7 8 8 8 8 7 7 6 6 5 5 5 5 6 6 6 7 7 6 7 8 9 9 9 9 10 9 9 12 16 15 15 15 16 16 16 15 13 7 5 5 5 5 5 5 5 6 6 7 7 7 7 7 8 8
6 6 7 7 7 8 8 8 7 7 7 6 7 7 8 8 8 8 7 7 6 6 5 4 5 6 6 6 6 6 6 6 6 7 8 9 10 10 10 11 10 10 12 17 15 15 15 15 16 16 16 15 10 6 4 4 5 5 5 5 6 7 8 8 8 8 8 8 8
6 6 7 7 7 7 7 7 7 7 7 7 7 7 8 8 7 7 6 5 5 5 5 6 7 7 6 6 6 6 6 5 6 6 7 9 10 10 10 11 11 12 13 17 16 15 14 14 15 16 16 15 11 7 5 5 5 5 5 5 7 8 8 8 8 9 9 9 9
6 6 7 7 7 7 7 7 7 7 7 7 7 7 7 7 6 5 4 4 5 5 6 7 7 7 7 7 7 6 6 6 7 7 8 9 9 9 10 10 11 12 14 18 17 16 15 14 15 15 16 15 11 8 6 5 5 5 5 6 7 8 8 8 8 9 9 10 9
6 6 7 7 7 7 7 7 7 7 7 7 7 7 7 6 5 5 5 5 5 5 6 6 6 7 6 6 6 6 6 7 7 8 9 9 9 10 10 10 10 12 15 18 18 17 15 14 14 15 15 15 10 7 6 5 5 4 4 5 6 7 8 8 8 8 9 9 8
6 6 6 7 7 7 7 7 7 7 7 7 7 7 7 6 6 6 5 5 5 4 4 5 5 5 5 5 5 6 6 7 7 8 8 9 9 10 10 9 8 12 16 17 17 17 16 14 14 14 14 13 8 6 5 5 4 4 4 4 5 6 7 7 7 8 8 8 8
5 6 6 6 6 6 7 7 7 7 7 8 8 7 7 6 6 5 5 5 5 5 4 4 4 5 5 5 5 6 7 8 8 8 8 8 9 9 10 10 10 13 17 17 17 17 16 14 13 13 12 10 6 5 4 4 4 3 3 4 4 5 5 6 6 6 7 7 7
5 5 5 6 6 6 6 6 7 7 7 7 7 7 6 5 5 4 5 5 5 5 5 5 5 6 6 6 5 6 6 7 7 8 8 8 8 8 9 10 10 14 16 16 16 17 16 15 14 13 11 7 4 3 4 3 3 3 3 3 3 4 4 5 5 5 5 6 6
4 4 4 5 5 5 6 6 6 7 7 6 6 5 5 5 4 4 4 5 5 5 5 5 5 6 6 6 5 5 6 6 6 7 7 7 6 6 7 8 9 12 15 16 16 17 17 17 15 13 10 6 4 3 3 3 3 3 3 4 4 4 4 4 4 4 5 5 7
3 3 3 4 4 5 5 5 6 6 6 5 5 4 4 4 4 4 5 5 4 4 5 5 5 5 5 5 5 6 6 6 5 5 5 6 5 5 6 6 7 10 12 15 16 17 17 17 17 15 11 7 5 4 4 4 4 5 5 5 5 5 5 4 4 4 5 6 10
3 3 3 3 4 4 5 5 5 5 5 4 4 4 4 4 4 4 4 4 3 3 4 4 4 5 5 5 5 5 6 5 5 4 4 4 5 6 7 6 6 8 11 15 16 17 17 18 17 16 13 8 6 5 5 5 5 6 6 6 6 6 5 5 5 5 5 7 12
3 3 3 3 3 4 4 5 4 4 4 4 4 4 4 4 4 4 4 4 3 3 3 4 5 5 5 6 5 5 5 5 4 4 3 4 5 8 9 6 6 8 10 14 16 17 17 18 18 17 14 8 6 6 5 5 6 7 7 7 7 6 6 6 5 5 5 6 9
4 4 4 4 3 4 4 4 4 4 4 4 4 3 3 4 3 4 4 4 3 3 3 4 5 5 5 5 4 4 4 4 4 4 4 4 5 7 8 6 6 7 9 12 15 17 18 18 19 18 16 10 8 6 6 6 7 8 9 9 8 8 7 6 6 6 5 6 6
Wind_Direction
38 41 45 47 49 51 51 50 47 44 41 38 37 36 35 37 38 36 31 28 27 25 22 20 17 13 12 13 17 20 21 21 22 22 22 21 17 14 10 8 6 5 5 5 7 11 16 21 27 33 33 24 10 2 358 358 357 2 7 10 10 8 6 6 354 339 322 304 290
41 44 47 50 51 52 52 50 46 43 41 39 38 37 36 38 38 36 33 30 27 23 20 17 14 12 13 14 18 21 23 24 24 23 22 22 19 17 14 12 10 10 11 12 13 16 20 24 32 36 34 27 14 4 357 357 6 15 19 18 18 20 22 25 18 10 2 357 348
43 45 47 48 48 50 50 49 46 43 42 41 38 37 38 38 38 36 33 29 25 23 21 17 12 12 12 14 18 21 25 26 25 24 23 22 20 19 17 15 13 13 15 16 17 19 23 28 36 38 35 28 17 7 359 358 12 23 27 24 21 23 26 29 21 15 10 8 360
44 46 47 48 49 49 50 49 46 45 43 42 40 39 39 38 36 34 31 27 26 25 22 17 13 10 10 12 17 22 26 28 27 26 24 22 21 20 19 17 16 16 16 18 20 23 27 34 40 41 36 29 20 9 359 355 12 25 33 29 26 26 28 29 25 21 16 9 1
44 45 46 47 48 49 49 49 48 46 45 42 41 40 38 36 34 31 29 28 26 24 22 19 15 11 8 9 15 20 25 28 28 27 25 22 22 21 20 19 19 18 18 19 22 26 31 37 42 42 38 31 22 10 358 353 11 28 37 36 31 29 27 27 26 24 20 13 8
45 46 47 48 48 48 48 47 47 47 46 44 43 42 39 36 34 32 32 31 28 25 23 21 17 13 9 9 12 17 21 25 25 25 25 23 21 20 20 21 20 19 19 20 25 29 34 38 43 42 37 32 24 11 1 357 13 32 42 41 35 31 29 27 27 25 24 20 16
47 48 48 47 47 47 47 45 46 46 46 46 44 43 41 36 34 33 33 32 29 26 23 21 17 13 11 10 12 15 18 22 24 25 25 24 22 20 20 20 20 20 21 23 27 31 36 41 43 41 35 30 24 14 8 7 19 36 46 44 38 34 32 29 27 27 26 24 23
46 46 47 47 47 48 48 47 47 47 46 45 43 42 40 38 35 33 33 33 30 26 23 20 16 14 13 13 14 15 17 20 22 23 24 24 22 20 19 19 20 21 23 25 30 35 38 42 42 39 34 28 23 15 12 13 24 37 45 45 41 38 36 32 29 29 29 28 27
41 42 43 44 45 46 47 47 48 48 48 46 43 41 40 38 35 33 32 32 29 26 23 21 18 16 16 16 16 16 16 17 19 21 22 23 22 20 18 17 19 20 23 26 33 37 40 43 41 37 32 27 22 15 13 15 26 34 39 41 41 41 41 39 34 32 31 31 30
39 38 39 41 41 43 44 46 47 48 48 46 43 41 40 39 37 35 32 31 28 26 25 23 20 18 18 17 17 16 15 15 16 18 20 22 22 21 19 17 18 20 23 26 32 37 40 43 40 36 31 26 21 17 15 16 24 29 32 33 35 39 42 42 38 35 32 31 30
39 38 37 38 37 38 40 42 43 45 45 44 41 39 38 38 37 35 32 29 29 27 25 23 22 21 20 19 17 16 14 13 13 15 18 21 22 22 21 20 19 21 24 27 32 36 39 42 40 36 32 26 22 18 15 15 21 26 28 28 28 32 37 41 40 37 32 28 27
39 38 37 36 35 36 37 39 39 40 40 41 38 37 36 35 34 32 31 29 30 27 24 22 23 23 22 21 18 16 14 12 12 13 17 20 23 24 24 23 23 24 27 29 31 35 40 42 40 38 34 29 24 19 15 15 19 23 25 25 24 26 30 34 38 37 33 26 25
38 38 37 36 36 36 36 37 36 35 35 36 34 33 32 31 30 29 29 29 29 26 23 22 23 24 24 22 20 17 14 12 11 11 14 17 21 24 25 25 26 27 29 30 31 35 39 42 41 39 36 31 27 21 18 17 19 21 23 23 23 24 25 26 31 34 33 28 26
35 36 36 37 36 37 37 35 34 32 31 32 31 31 30 28 27 27 27 27 27 26 24 22 22 23 23 23 22 19 16 13 11 11 12 15 20 23 25 26 28 29 31 31 32 36 39 41 41 40 37 33 28 24 21 20 21 22 23 23 24 24 23 22 24 28 32 31 27
31 32 33 35 36 37 37 35 33 31 30 30 29 30 30 28 27 27 27 27 26 26 25 24 23 22 22 22 22 19 16 14 11 10 10 12 18 23 25 27 28 30 32 33 34 36 38 40 40 39 37 34 29 25 22 22 22 23 24 24 25 24 23 21 20 23 29 33 29
30 29 30 32 34 36 36 35 34 32 30 29 29 30 31 30 28 28 28 29 28 27 27 26 24 23 21 21 21 20 17 14 12 11 10 10 15 20 25 28 30 32 33 34 35 35 35 36 36 37 36 34 30 26 23 22 22 23 25 26 26 26 25 23 21 22 26 31 30
29 28 28 29 31 33 34 34 33 32 30 28 28 29 29 29 28 28 29 30 30 28 27 26 24 23 21 19 19 19 18 15 13 11 9 6 10 16 23 28 31 33 35 36 36 35 33 32 31 32 33 33 31 27 24 22 22 22 23 25 26 27 26 25 23 21 23 27 28
28 26 26 26 28 29 30 31 31 30 29 27 26 26 27 26 26 26 27 28 30 29 27 26 25 23 21 18 17 18 19 18 14 11 8 3 4 9 19 28 32 35 37 38 38 36 33 30 28 28 29 30 29 26 23 21 20 20 21 23 24 26 26 25 23 22 21 22 25
26 25 24 24 24 25 27 28 28 28 27 26 25 24 23 22 22 22 23 24 27 28 28 27 25 23 21 18 17 17 18 19 14 10 7 3 2 5 12 24 31 36 39 42 41 38 35 30 27 26 26 27 26 24 21 19 19 18 19 21 22 24 25 24 23 21 20 19 21
25 23 22 21 21 22 24 25 26 26 26 26 24 23 22 20 20 20 20 19 21 24 27 28 27 24 21 19 18 17 17 18 14 10 7 5 4 3 6 17 28 35 40 45 45 43 38 33 28 25 23 25 25 23 20 18 18 17 18 19 20 22 23 23 22 20 18 15 16
23 21 20 19 19 21 23 24 24 25 25 25 24 23 21 20 20 20 19 16 18 21 25 27 27 26 23 20 18 16 15 16 14 12 9 8 6 2 1 9 24 31 37 45 50 49 45 37 30 25 22 22 22 21 19 18 17 17 17 18 19 20 21 22 21 19 16 13 11
21 19 18 18 19 20 22 23 24 25 25 24 22 21 19 19 19 18 16 15 16 18 21 23 25 25 23 20 17 14 13 13 13 13 13 12 8 2 359 4 22 29 33 40 49 53 52 44 35 27 21 19 19 19 19 19 17 17 17 19 19 19 20 21 20 19 16 11 8
18 17 17 18 19 20 22 22 23 24 24 22 20 18 17 16 14 14 14 15 16 16 15 15 17 18 18 16 13 11 10 10 10 11 12 13 9 3 359 2 23 30 32 33 43 52 55 51 40 30 22 18 16 16 17 18 17 16 17 18 17 17 18 19 18 18 16 12 7
17 17 17 18 18 19 20 21 22 23 22 19 17 15 14 13 11 11 12 14 15 14 12 10 7 8 10 11 9 8 8 8 7 7 8 10 9 4 0 2 24 34 35 31 35 41 48 53 45 35 26 19 15 15 16 17 16 15 16 16 15 14 13 15 15 16 15 12 6
18 18 18 18 18 20 22 23 23 22 20 17 16 15 14 12 12 12 14 14 14 14 13 11 7 7 9 10 8 7 8 7 6 5 6 7 7 4 1 359 18 33 38 33 33 36 42 48 49 43 33 22 17 14 13 13 14 14 13 13 12 11 9 9 10 10 10 9 4
21 21 20 19 21 23 24 24 23 22 20 18 17 16 14 12 13 15 17 17 15 14 14 14 13 14 15 13 11 10 9 8 7 6 6 6 5 4 1 357 7 30 41 37 33 33 35 39 43 45 42 29 18 12 8 6 7 7 8 8 9 9 8 6 5 4 4 4 0
24 23 22 21 25 25 25 23 23 21 19 17 16 14 12 12 15 18 19 18 17 16 16 17 16 17 18 18 16 14 12 9 7 7 7 8 7 5 2 358 358 23 42 41 36 33 31 31 34 37 40 37 23 13 7 2 1 2 3 4 6 7 6 4 2 1 0 359 357
24 23 22 24 26 25 23 22 22 21 18 16 14 12 12 15 18 19 19 18 18 18 18 15 15 18 21 21 18 16 14 12 10 10 10 10 10 7 4 359 354 18 40 44 40 36 32 28 28 30 32 34 26 15 7 3 1 0 1 2 4 4 3 2 1 0 358 356 356
22 23 25 27 26 24 23 23 21 18 15 13 13 14 15 18 19 19 19 18 19 19 17 12 14 21 25 21 17 16 16 16 15 14 14 13 11 7 3 359 351 9 32 42 42 39 35 30 27 27 27 28 24 16 7 4 2 0 0 2 3 2 2 0 0 359 358 357 355
22 24 26 27 26 24 22 20 17 15 13 14 15 17 18 20 19 18 18 18 18 18 16 15 22 24 24 20 18 19 19 17 18 19 20 17 12 7 2 359 350 1 21 35 39 40 38 34 29 27 25 24 20 13 4 2 0 0 0 0 1 1 0 359 358 357 357 357 355
22 25 27 28 26 23 20 16 15 14 15 17 18 19 20 19 18 16 16 16 15 15 16 22 26 25 22 19 21 21 20 18 20 22 23 21 15 9 2 358 350 358 14 27 32 36 38 38 33 28 24 22 16 8 359 358 358 359 359 359 0 0 360 358 357 356 355 354 354
23 26 28 29 25 21 17 14 14 14 16 18 20 20 19 17 16 14 14 16 17 17 18 22 23 21 18 17 19 19 19 20 21 22 23 22 16 10 4 359 351 356 8 22 26 29 33 38 36 30 25 20 13 4 355 354 354 355 356 357 359 359 358 356 354 352 351 351 350
23 26 29 28 24 19 16 14 14 15 16 18 19 19 17 14 13 11 12 16 19 20 21 23 22 20 18 17 17 18 19 21 21 21 21 20 17 12 8 2 352 353 2 17 22 24 27 36 38 34 27 19 11 359 349 348 351 353 355 356 356 355 354 351 348 346 345 345 344
23 26 28 26 22 18 15 14 14 15 17 18 17 16 15 13 13 12 11 14 17 19 20 22 22 20 19 19 20 20 20 20 20 18 17 16 15 13 9 4 352 349 356 12 20 22 24 33 40 39 31 20 9 353 343 342 346 348 349 349 349 349 348 345 341 339 338 337 337
24 27 27 24 20 17 15 14 15 17 18 17 14 12 11 12 12 10 9 10 15 16 16 14 17 17 17 17 20 22 21 20 18 16 15 14 14 12 8 1 350 346 351 6 18 20 21 30 40 43 38 24 6 345 335 333 335 336 337 339 340 340 338 335 332 330 329 328 327
26 28 27 23 19 17 15 14 16 18 18 16 12 9 7 6 5 3 4 9 15 16 14 11 13 15 15 13 15 17 19 19 17 14 12 10 11 9 5 357 347 343 347 1 15 18 19 25 36 42 42 31 6 342 334 331 329 329 330 333 335 335 332 328 323 320 318 318 319
24 29 29 25 19 16 14 16 18 17 16 11 9 5 3 1 358 358 2 10 16 15 11 9 11 10 9 8 10 11 12 15 15 11 7 3 4 5 3 355 343 339 343 357 12 17 18 21 30 37 40 33 11 354 348 343 343 344 346 348 346 344 339 332 323 318 317 319 330
17 26 30 27 19 15 14 16 18 16 12 7 3 0 358 358 357 357 2 11 16 13 8 6 6 1 357 358 7 8 8 10 11 8 2 355 356 3 5 354 340 336 342 355 9 15 16 19 24 30 35 33 16 5 0 355 355 358 359 358 356 353 350 345 339 334 332 335 345
8 21 28 29 20 15 13 16 15 13 9 4 0 357 355 355 353 354 358 8 16 13 6 0 355 348 345 352 6 7 3 0 0 359 356 348 355 7 11 358 340 336 343 354 6 12 16 17 21 26 31 33 20 10 5 359 358 0 1 359 357 355 353 352 351 349 346 344 349
2 13 21 25 19 15 12 11 8 5 3 4 359 356 352 350 348 350 354 2 8 7 0 351 343 338 340 352 4 5 358 351 348 347 347 347 359 8 9 357 342 338 343 352 3 10 14 16 18 21 26 32 21 13 7 1 359 1 3 1 358 355 353 353 353 351 348 345 345
1 8 12 15 14 13 11 5 359 356 355 358 354 349 345 345 346 349 352 355 355 355 351 343 338 337 340 350 359 1 356 349 342 339 340 348 358 4 3 352 345 341 344 350 0 8 13 16 16 18 21 26 21 15 9 3 0 2 3 1 358 355 352 351 350 349 347 344 339